EW8019 Weather Reports


time (UTC)temp
C
wind
direction
speed
KPH
gust
KPH
rain 1hr
cm
rain 24hr
cm
rain mn
cm
humidity
%
barometer
mb
20190425014707 10 153 0.0 4.8 0.00 0.00 0.00 89 998.4
20190425014649 10 152 0.0 4.8 0.00 0.00 0.00 89 998.6
20190425014209 10 146 0.0 4.8 0.00 0.00 0.00 89 998.5
20190425013707 10 139 0.0 0.0 0.00 0.00 0.00 89 998.6
20190425013209 10 128 0.0 0.0 0.00 0.00 0.00 88 998.8
20190425013057 10 172 0.0 0.0 0.00 0.00 0.00 88 998.7
20190425012707 10 175 0.0 1.6 0.00 0.00 0.00 89 998.8
20190425012209 10 173 0.0 1.6 0.00 0.00 0.00 88 998.8
20190425011709 10 166 0.0 3.2 0.00 0.00 0.00 88 998.7
20190425011528 10 165 0.0 3.2 0.00 0.00 0.00 88 999.0
20190425011210 10 177 0.0 4.8 0.00 0.00 0.00 88 999.0
20190425010708 10 164 0.0 4.8 0.00 0.00 0.00 88 998.9
20190425010209 10 171 0.0 14.5 0.00 0.00 0.00 87 998.9
20190425010007 10 160 0.0 3.2 0.00 0.00 0.00 88 998.8
20190425005714 10 163 1.6 16.1 0.00 0.00 0.00 87 998.8
20190425005207 10 148 3.2 16.1 0.00 0.00 0.00 87 998.8
20190425004718 10 171 0.0 17.7 0.00 0.00 0.00 87 999.3
20190425004708 10 179 3.2 16.1 0.00 0.00 0.00 87 999.1
20190425004208 10 186 1.6 20.9 0.00 0.00 0.00 87 999.3
20190425003710 10 165 1.6 20.9 0.00 0.00 0.00 86 999.3
20190425003209 10 155 1.6 20.9 0.00 0.00 0.00 86 999.5
20190425003140 10 153 0.0 19.3 0.00 0.00 0.00 86 999.7
20190425002708 10 140 1.6 17.7 0.00 0.00 0.00 86 999.8
20190425002229 10 187 1.6 17.7 0.00 0.00 0.00 86 999.8
20190425001708 10 158 1.6 17.7 0.00 0.00 0.00 86 999.5
20190425001552 10 150 0.0 16.1 0.00 0.00 0.00 86 999.7
20190425001215 10 168 1.6 17.7 0.00 0.00 0.00 86 999.5
20190425000708 10 159 0.0 11.3 0.00 0.00 0.00 86 999.2
20190425000209 10 157 0.0 11.3 0.00 0.00 0.00 86 999.1
20190425000034 10 161 0.0 11.3 0.00 0.00 0.00 86 999.2
20190424235729 10 146 1.6 11.3 0.00 0.00 0.00 86 999.1
20190424235207 10 148 0.0 8.0 0.00 0.00 0.00 86 999.1
20190424234709 10 153 0.0 8.0 0.00 0.00 0.00 86 999.1
20190424234649 9 171 0.0 8.0 0.00 0.00 0.00 86 999.2
20190424234208 9 175 0.0 0.0 0.00 0.00 0.00 86 999.1
20190424233707 9 159 0.0 4.8 0.00 0.00 0.00 86 999.1
20190424233218 9 165 0.0 4.8 0.00 0.00 0.00 86 999.4
20190424233211 9 167 0.0 4.8 0.00 0.00 0.00 86 999.3
20190424232707 9 165 0.0 4.8 0.00 0.00 0.00 86 999.3
20190424232209 9 174 0.0 1.6 0.00 0.00 0.00 85 999.2
20190424231710 9 152 0.0 0.0 0.00 0.00 0.00 85 999.3
20190424231543 8 167 0.0 0.0 0.00 0.00 0.00 85 999.4
20190424231210 9 167 0.0 9.7 0.00 0.00 0.00 85 999.2
20190424230708 9 163 0.0 11.3 0.00 0.00 0.00 85 999.2
20190424230210 9 167 1.6 11.3 0.00 0.00 0.00 85 999.2
20190424230203 9 198 1.6 11.3 0.00 0.00 0.00 85 999.2
20190424225710 9 168 0.0 11.3 0.00 0.00 0.00 85 999.1
20190424225206 9 166 0.0 9.7 0.00 0.00 0.00 85 999.1
20190424224709 9 175 0.0 9.7 0.00 0.00 0.00 85 999.1
20190424224550 9 158 0.0 9.7 0.00 0.00 0.00 85 999.2
20190424224208 9 163 1.6 14.5 0.00 0.00 0.00 84 999.1
20190424223707 9 160 1.6 14.5 0.00 0.00 0.00 84 999.2
20190424223208 9 146 1.6 14.5 0.00 0.00 0.00 84 999.2
20190424223137 9 157 1.6 11.3 0.00 0.00 0.00 84 999.4
20190424222712 9 173 0.0 9.7 0.00 0.00 0.00 83 999.2
20190424222210 9 165 0.0 9.7 0.00 0.00 0.00 83 999.2
20190424221715 10 170 0.0 9.7 0.00 0.00 0.00 82 999.3
20190424221543 9 159 0.0 9.7 0.00 0.00 0.00 82 999.4
20190424221208 10 163 0.0 9.7 0.00 0.00 0.00 82 999.3
20190424220721 10 188 1.6 12.9 0.00 0.00 0.00 81 999.4
20190424220209 10 192 3.2 14.5 0.00 0.00 0.00 81 999.3
20190424220122 9 167 0.0 12.9 0.00 0.00 0.00 81 999.4
20190424215709 10 185 1.6 14.5 0.00 0.00 0.00 80 999.4
20190424215208 10 185 1.6 14.5 0.00 0.00 0.00 80 999.4
20190424214711 10 180 0.0 9.7 0.00 0.00 0.00 80 999.3
20190424214539 10 188 0.0 8.0 0.00 0.00 0.00 80 999.4
20190424214208 10 194 0.0 11.3 0.00 0.00 0.00 80 999.3
20190424213708 10 171 0.0 11.3 0.00 0.00 0.00 80 999.3
20190424213208 10 165 0.0 11.3 0.00 0.00 0.00 79 999.5
20190424213141 10 191 0.0 11.3 0.00 0.00 0.00 79 999.6
20190424212707 10 163 0.0 12.9 0.00 0.00 0.00 79 999.4
20190424212208 10 184 1.6 16.1 0.00 0.00 0.00 79 999.5
20190424211729 10 188 1.6 16.1 0.00 0.00 0.00 79 999.4
20190424211527 10 179 0.0 14.5 0.00 0.00 0.00 79 999.6
20190424211211 10 177 1.6 16.1 0.00 0.00 0.00 78 999.5
20190424210707 11 181 0.0 9.7 0.00 0.00 0.00 78 999.6
20190424210210 11 217 1.6 12.9 0.00 0.00 0.00 77 999.7
20190424210133 10 208 0.0 14.5 0.00 0.00 0.00 77 999.7
20190424205714 11 200 1.6 17.7 0.00 0.00 0.00 77 999.6
20190424205207 11 194 1.6 17.7 0.00 0.00 0.00 76 999.6
20190424204707 11 198 1.6 19.3 0.00 0.00 0.00 75 999.7
20190424204541 11 178 1.6 14.5 0.00 0.00 0.00 75 999.7
20190424204208 11 200 1.6 19.3 0.00 0.00 0.00 75 999.6
20190424203708 11 186 3.2 19.3 0.00 0.00 0.00 75 999.6
20190424203217 11 187 1.6 14.5 0.00 0.00 0.00 75 999.7
20190424203214 11 198 1.6 14.5 0.00 0.00 0.00 74 999.7
20190424202707 11 193 0.0 4.8 0.00 0.00 0.00 74 999.5
20190424202209 11 163 0.0 4.8 0.00 0.00 0.00 74 999.4
20190424201712 12 236 0.0 4.8 0.00 0.00 0.00 73 999.3
20190424201554 11 196 0.0 4.8 0.00 0.00 0.00 73 999.4
20190424201208 12 189 0.0 6.4 0.00 0.00 0.00 72 999.3
20190424200708 12 216 0.0 9.7 0.00 0.00 0.00 71 999.4
20190424200211 12 192 0.0 11.3 0.00 0.00 0.00 71 999.2
20190424195711 12 190 1.6 11.3 0.00 0.00 0.00 71 999.2
20190424195207 12 178 1.6 11.3 0.00 0.00 0.00 70 999.3
20190424194709 12 221 0.0 24.1 0.00 0.00 0.00 70 999.4
20190424194557 12 232 0.0 9.7 0.00 0.00 0.00 69 999.4
20190424194209 13 208 1.6 24.1 0.00 0.00 0.00 69 999.2
20190424193707 13 217 4.8 24.1 0.00 0.00 0.00 68 999.1
20190424193208 13 203 6.4 33.8 0.00 0.00 0.00 67 999.1
20190424193021 13 178 6.4 24.1 0.00 0.00 0.00 67 999.0
20190424192708 13 213 11.3 33.8 0.00 0.00 0.00 67 998.8
20190424192208 13 200 14.5 33.8 0.00 0.00 0.00 67 998.7
20190424191708 14 187 9.7 32.2 0.00 0.00 0.00 68 998.6
20190424191551 13 205 20.9 32.2 0.00 0.00 0.00 69 998.7
20190424191208 14 179 3.2 24.1 0.00 0.00 0.00 68 998.3
20190424190707 14 218 4.8 25.7 0.00 0.00 0.00 68 998.0
20190424190210 14 190 6.4 25.7 0.00 0.00 0.00 67 998.0
20190424190036 14 194 4.8 27.4 0.00 0.00 0.00 67 998.1
20190424185707 14 228 4.8 25.7 0.00 0.00 0.00 67 997.9
20190424185207 14 188 3.2 24.1 0.00 0.00 0.00 66 997.8
20190424184710 14 200 4.8 24.1 0.00 0.00 0.00 66 997.7
20190424184636 14 197 1.6 24.1 0.00 0.00 0.00 66 997.7
20190424184209 15 158 6.4 24.1 0.00 0.00 0.00 65 997.6
20190424183707 15 211 4.8 27.4 0.00 0.00 0.00 64 997.8
20190424183208 15 180 6.4 27.4 0.00 0.00 0.00 64 997.8
20190424183029 14 189 3.2 27.4 0.00 0.00 0.00 64 997.7
20190424182708 15 167 8.0 29.0 0.00 0.00 0.00 63 997.6
20190424182213 15 190 11.3 29.0 0.00 0.00 0.00 63 997.6
20190424181709 15 200 9.7 29.0 0.00 0.00 0.00 62 997.6
20190424181207 15 185 6.4 27.4 0.00 0.00 0.00 64 997.6
20190424180708 15 215 3.2 22.5 0.00 0.00 0.00 65 997.6
20190424180209 15 162 1.6 17.7 0.00 0.00 0.00 66 997.7
20190424180103 15 175 0.0 16.1 0.00 0.00 0.00 66 997.7
20190424175709 15 158 3.2 17.7 0.00 0.00 0.00 65 997.6
20190424175207 15 192 1.6 22.5 0.00 0.00 0.00 65 997.4
20190424174709 15 205 3.2 22.5 0.00 0.00 0.00 65 997.3
20190424174654 15 167 1.6 22.5 0.00 0.00 0.00 65 997.3
20190424174209 15 211 3.2 24.1 0.00 0.00 0.00 65 997.1
20190424173707 15 229 4.8 24.1 0.00 0.00 0.00 65 997.0
20190424173212 15 211 4.8 29.0 0.00 0.00 0.00 65 997.1
20190424173043 15 200 3.2 22.5 0.00 0.00 0.00 65 997.2
20190424172707 15 184 8.0 29.0 0.00 0.00 0.00 65 997.0
20190424172208 15 225 8.0 29.0 0.00 0.00 0.00 65 997.0
20190424171709 15 198 4.8 24.1 0.00 0.00 0.00 66 996.8
20190424171649 15 222 3.2 17.7 0.00 0.00 0.00 66 996.9
20190424171207 15 208 3.2 29.0 0.00 0.00 0.00 66 997.0
20190424170719 16 184 8.0 29.0 0.00 0.00 0.00 65 996.8
20190424170209 16 180 11.3 29.0 0.00 0.00 0.00 66 996.7
20190424170124 15 198 14.5 27.4 0.00 0.00 0.00 66 996.8
20190424165708 16 200 8.0 22.5 0.00 0.00 0.00 66 996.7
20190424165209 16 213 4.8 20.9 0.00 0.00 0.00 66 996.5
20190424164709 16 222 3.2 20.9 0.00 0.00 0.00 67 996.2
20190424164525 16 188 8.0 22.5 0.00 0.00 0.00 68 996.2
20190424164208 16 206 1.6 17.7 0.00 0.00 0.00 69 996.2
20190424163708 16 157 1.6 22.5 0.00 0.00 0.00 68 996.0
20190424163249 16 208 0.0 14.5 0.00 0.00 0.00 67 996.1
20190424163208 16 252 3.2 33.8 0.00 0.00 0.00 67 996.0
20190424162709 16 204 9.7 33.8 0.00 0.00 0.00 65 996.2
20190424162210 16 212 16.1 30.6 0.00 0.00 0.00 63 996.3
20190424161709 16 209 17.7 37.0 0.00 0.00 0.00 61 996.3
20190424161215 17 198 16.1 37.0 0.00 0.00 0.00 61 996.2
20190424160708 17 235 12.9 38.6 0.00 0.00 0.00 60 996.1
20190424160209 17 238 14.5 38.6 0.00 0.00 0.00 60 996.1
20190424160054 17 181 8.0 37.0 0.00 0.00 0.00 61 996.1
20190424155709 17 201 19.3 38.6 0.00 0.00 0.00 60 996.1
20190424155207 17 211 17.7 33.8 0.00 0.00 0.00 60 996.2
20190424154707 17 201 16.1 35.4 0.00 0.00 0.00 60 996.1
20190424154601 17 210 17.7 33.8 0.00 0.00 0.00 60 996.1
20190424154208 18 196 16.1 35.4 0.00 0.00 0.00 59 995.9
20190424153708 18 198 16.1 46.7 0.00 0.00 0.00 56 995.7
20190424153208 18 190 19.3 46.7 0.00 0.00 0.00 55 995.6
20190424153008 18 173 9.7 43.5 0.00 0.00 0.00 56 995.6
20190424152708 19 180 22.5 46.7 0.00 0.00 0.00 55 995.5
20190424152214 19 216 16.1 41.8 0.00 0.00 0.00 57 995.3
20190424151716 19 165 11.3 30.6 0.00 0.00 0.00 57 995.4
20190424151709 19 188 11.3 29.0 0.00 0.00 0.00 57 995.3
20190424151208 20 169 9.7 32.2 0.00 0.00 0.00 56 995.2
20190424150708 19 208 11.3 32.2 0.00 0.00 0.00 59 995.2
20190424150222 18 210 14.5 32.2 0.00 0.00 0.00 60 995.2
20190424150120 18 189 9.7 33.8 0.00 0.00 0.00 60 995.2
20190424145709 18 215 14.5 30.6 0.00 0.00 0.00 59 995.2
20190424145207 19 169 12.9 35.4 0.00 0.00 0.00 59 995.1
20190424144708 19 205 12.9 35.4 0.00 0.00 0.00 58 995.0
20190424144556 19 188 6.4 35.4 0.00 0.00 0.00 57 995.1
20190424144209 19 178 11.3 35.4 0.00 0.00 0.00 57 995.0
20190424143707 19 203 8.0 27.4 0.00 0.00 0.00 58 995.0
20190424143222 19 184 8.0 37.0 0.00 0.00 0.00 58 995.1
20190424143008 19 183 4.8 32.2 0.00 0.00 0.00 58 995.2
20190424142708 19 170 12.9 37.0 0.00 0.00 0.00 58 995.1
20190424142210 20 202 12.9 37.0 0.00 0.00 0.00 56 995.2
20190424141713 20 174 6.4 32.2 0.00 0.00 0.00 56 995.2
20190424141708 20 200 12.9 41.8 0.00 0.00 0.00 56 995.2
20190424141207 20 169 16.1 41.8 0.00 0.00 0.00 55 995.2
20190424140707 20 195 17.7 41.8 0.00 0.00 0.00 56 995.1
20190424140209 20 186 12.9 38.6 0.00 0.00 0.00 55 994.9
20190424140013 20 178 12.9 32.2 0.00 0.00 0.00 55 995.0
20190424135710 20 163 12.9 38.6 0.00 0.00 0.00 56 994.9
20190424135209 20 191 17.7 38.6 0.00 0.00 0.00 55 994.9
20190424134709 20 207 17.7 38.6 0.00 0.00 0.00 55 995.1
20190424134613 20 220 24.1 35.4 0.00 0.00 0.00 55 995.1
20190424134208 20 186 17.7 37.0 0.00 0.00 0.00 56 995.1
20190424133707 20 137 17.7 37.0 0.00 0.00 0.00 55 995.0
20190424133209 20 185 11.3 37.0 0.00 0.00 0.00 54 994.8
20190424133035 20 164 16.1 38.6 0.00 0.00 0.00 54 994.9
20190424132709 21 201 8.0 33.8 0.00 0.00 0.00 55 994.8
20190424132209 20 168 9.7 35.4 0.00 0.00 0.00 55 994.7
20190424131723 20 185 14.5 37.0 0.00 0.00 0.00 54 994.8
20190424131634 20 196 12.9 35.4 0.00 0.00 0.00 54 994.8
20190424131207 21 207 14.5 40.2 0.00 0.00 0.00 53 994.7
20190424130708 21 194 16.1 40.2 0.00 0.00 0.00 52 994.7
20190424130208 21 205 16.1 40.2 0.00 0.00 0.00 54 994.6
20190424130031 20 202 17.7 40.2 0.00 0.00 0.00 54 994.7
20190424125709 20 175 12.9 40.2 0.00 0.00 0.00 55 994.6
20190424125208 20 168 14.5 40.2 0.00 0.00 0.00 56 994.7
20190424124708 20 181 17.7 41.8 0.00 0.00 0.00 55 994.6
20190424124647 20 157 14.5 37.0 0.00 0.00 0.00 55 994.5
20190424124208 20 181 20.9 41.8 0.00 0.00 0.00 53 994.5
20190424123707 21 199 19.3 41.8 0.00 0.00 0.00 52 994.6
20190424123213 21 184 14.5 35.4 0.00 0.00 0.00 52 994.5
20190424123038 21 175 17.7 32.2 0.00 0.00 0.00 53 994.5
20190424122707 21 173 11.3 35.4 0.00 0.00 0.00 54 994.5
20190424122207 20 159 11.3 35.4 0.00 0.00 0.00 53 994.5
20190424121711 20 218 14.5 38.6 0.00 0.00 0.00 53 994.5
20190424121644 20 194 8.0 27.4 0.00 0.00 0.00 53 994.5
20190424121217 21 170 16.1 38.6 0.00 0.00 0.00 51 994.5
20190424120708 21 182 19.3 38.6 0.00 0.00 0.00 50 994.3
20190424120209 21 200 19.3 37.0 0.00 0.00 0.00 51 994.2
20190424120035 21 195 16.1 35.4 0.00 0.00 0.00 51 994.3
20190424115707 21 164 16.1 40.2 0.00 0.00 0.00 50 994.3
20190424115207 21 190 17.7 40.2 0.00 0.00 0.00 51 994.3
20190424114708 21 158 19.3 40.2 0.00 0.00 0.00 52 994.2
20190424114641 21 179 19.3 40.2 0.00 0.00 0.00 51 994.3
20190424114208 21 186 16.1 37.0 0.00 0.00 0.00 52 994.1
20190424113707 21 216 12.9 37.0 0.00 0.00 0.00 53 994.2
20190424113213 21 165 14.5 37.0 0.00 0.00 0.00 53 994.2
20190424113106 21 220 14.5 40.2 0.00 0.00 0.00 53 994.2
20190424112708 21 201 14.5 49.9 0.00 0.00 0.00 53 994.2
20190424112209 21 182 16.1 49.9 0.00 0.00 0.00 54 994.1
20190424111712 21 193 19.3 51.5 0.00 0.00 0.00 54 994.1
20190424111501 20 163 20.9 48.3 0.00 0.00 0.00 54 994.1
20190424111207 20 144 19.3 51.5 0.00 0.00 0.00 57 994.0
20190424110708 20 224 20.9 51.5 0.00 0.00 0.00 55 994.1
20190424110208 20 221 16.1 35.4 0.00 0.00 0.00 55 994.1
20190424110133 20 181 20.9 38.6 0.00 0.00 0.00 55 994.2
20190424105708 20 159 16.1 35.4 0.00 0.00 0.00 55 994.0
20190424105208 20 197 19.3 43.5 0.00 0.00 0.00 56 994.0
20190424104709 21 242 20.9 43.5 0.00 0.00 0.00 54 994.0
20190424104503 20 170 17.7 51.5 0.00 0.00 0.00 53 994.1
20190424104211 21 165 19.3 43.5 0.00 0.00 0.00 53 993.9
20190424103707 21 163 17.7 40.2 0.00 0.00 0.00 55 993.9
20190424103208 21 226 20.9 40.2 0.00 0.00 0.00 53 994.0
20190424103050 21 182 12.9 45.1 0.00 0.00 0.00 54 994.0
20190424102710 21 164 19.3 40.2 0.00 0.00 0.00 53 993.8
20190424102209 21 192 16.1 40.2 0.00 0.00 0.00 54 993.7
20190424101712 21 204 17.7 40.2 0.00 0.00 0.00 55 993.8
20190424101507 21 182 12.9 32.2 0.00 0.00 0.00 57 993.8
20190424101209 21 185 19.3 40.2 0.00 0.00 0.00 57 993.8
20190424100728 21 192 14.5 40.2 0.00 0.00 0.00 57 993.7
20190424100224 20 205 11.3 35.4 0.00 0.00 0.00 58 993.7
20190424100104 20 189 6.4 27.4 0.00 0.00 0.00 57 993.8
20190424095725 20 181 12.9 35.4 0.00 0.00 0.00 58 993.7
20190424095225 20 171 11.3 35.4 0.00 0.00 0.00 59 993.7
20190424094736 20 149 9.7 30.6 0.00 0.00 0.00 60 993.8
20190424094226 20 169 9.7 29.0 0.00 0.00 0.00 60 993.8
20190424093735 20 175 12.9 29.0 0.00 0.00 0.00 60 993.8
20190424093225 20 213 14.5 32.2 0.00 0.00 0.00 61 993.8
20190424093107 20 164 14.5 30.6 0.00 0.00 0.00 60 993.9
20190424092732 20 177 14.5 32.2 0.00 0.00 0.00 61 993.9
20190424092231 20 175 11.3 32.2 0.00 0.00 0.00 61 993.9
20190424091737 20 161 9.7 29.0 0.00 0.00 0.00 62 993.9
20190424091729 20 186 6.4 32.2 0.00 0.00 0.00 62 993.9
20190424091221 20 128 12.9 29.0 0.00 0.00 0.00 63 993.9
20190424090733 19 157 12.9 29.0 0.00 0.00 0.00 63 993.9
20190424090237 19 166 9.7 29.0 0.00 0.00 0.00 63 993.9
20190424090152 19 169 4.8 24.1 0.00 0.00 0.00 63 993.8
20190424085709 19 187 11.3 32.2 0.00 0.00 0.00 63 993.7
20190424085209 19 180 11.3 33.8 0.00 0.00 0.00 63 993.7
20190424084712 18 177 12.9 33.8 0.00 0.00 0.00 64 993.7
20190424084710 19 171 11.3 33.8 0.00 0.00 0.00 64 993.6
20190424084209 19 169 12.9 33.8 0.00 0.00 0.00 64 993.6
20190424083708 19 159 12.9 32.2 0.00 0.00 0.00 64 993.6
20190424083209 18 170 12.9 32.2 0.00 0.00 0.00 65 993.6
20190424083106 18 156 17.7 33.8 0.00 0.00 0.00 65 993.6
20190424082707 18 192 12.9 32.2 0.00 0.00 0.00 65 993.5
20190424082208 18 182 12.9 29.0 0.00 0.00 0.00 65 993.5
20190424081714 18 155 11.3 29.0 0.00 0.00 0.00 66 993.5
20190424081627 18 163 12.9 27.4 0.00 0.00 0.00 66 993.5
20190424081208 18 180 11.3 29.0 0.00 0.00 0.00 67 993.5
20190424080713 18 178 8.0 27.4 0.00 0.00 0.00 67 993.4
20190424080221 18 143 4.8 22.5 0.00 0.00 0.00 68 993.4
20190424080036 17 199 4.8 17.7 0.00 0.00 0.00 68 993.4
20190424075710 17 193 6.4 22.5 0.00 0.00 0.00 68 993.4
20190424075208 17 166 6.4 22.5 0.00 0.00 0.00 70 993.5
20190424074708 17 150 6.4 19.3 0.00 0.00 0.00 70 993.5
20190424074505 17 174 3.2 20.9 0.00 0.00 0.00 70 993.5
20190424074208 17 188 4.8 25.7 0.00 0.00 0.00 70 993.5
20190424073708 17 172 6.4 27.4 0.00 0.00 0.00 71 993.5
20190424073216 16 169 9.7 27.4 0.00 0.00 0.00 72 993.5
20190424073206 16 192 11.3 24.1 0.00 0.00 0.00 72 993.6
20190424072713 16 159 9.7 27.4 0.00 0.00 0.00 72 993.5
20190424072225 16 167 8.0 22.5 0.00 0.00 0.00 72 993.6
20190424071710 16 161 6.4 22.5 0.00 0.00 0.00 72 993.6
20190424071550 16 198 4.8 22.5 0.00 0.00 0.00 73 993.6
20190424071213 16 183 6.4 20.9 0.00 0.00 0.00 74 993.7
20190424070711 16 182 4.8 22.5 0.00 0.00 0.00 75 993.7
20190424070211 16 194 4.8 22.5 0.00 0.00 0.00 75 993.6
20190424070055 15 145 3.2 19.3 0.00 0.00 0.00 75 993.6
20190424065713 16 182 4.8 22.5 0.00 0.00 0.00 74 993.6
20190424065209 16 153 4.8 16.1 0.00 0.00 0.00 74 993.5
20190424064726 16 167 6.4 19.3 0.00 0.00 0.00 76 993.5
20190424064713 16 165 4.8 12.9 0.00 0.00 0.00 76 993.5
20190424064216 16 165 3.2 12.9 0.00 0.00 0.00 77 993.5
20190424063708 15 167 1.6 11.3 0.00 0.00 0.00 79 993.4
20190424063210 15 161 0.0 4.8 0.00 0.00 0.00 80 993.4
20190424063128 15 156 0.0 1.6 0.00 0.00 0.00 80 993.4
20190424062708 15 154 0.0 4.8 0.00 0.00 0.00 81 993.4
20190424062237 14 200 0.0 8.0 0.00 0.00 0.00 83 993.3
20190424061710 13 171 0.0 8.0 0.00 0.00 0.00 85 993.4
20190424061539 13 149 0.0 8.0 0.00 0.00 0.00 85 993.5
20190424061209 13 171 0.0 8.0 0.00 0.00 0.00 86 993.4
20190424060710 13 150 0.0 6.4 0.00 0.00 0.00 87 993.4
20190424060209 13 186 0.0 6.4 0.00 0.00 0.00 88 993.4
20190424060127 12 181 0.0 4.8 0.00 0.00 0.00 88 993.5
20190424055709 12 169 0.0 1.6 0.00 0.00 0.00 89 993.4
20190424055209 12 163 0.0 1.6 0.00 0.00 0.00 89 993.4
20190424054710 12 157 0.0 1.6 0.00 0.00 0.00 90 993.4
20190424054552 12 156 0.0 1.6 0.00 0.00 0.00 90 993.5
20190424054213 12 156 0.0 1.6 0.00 0.00 0.00 90 993.4
20190424053721 11 136 0.0 1.6 0.00 0.00 0.00 90 993.4
20190424053221 11 135 0.0 3.2 0.00 0.00 0.00 89 993.6
20190424053209 11 135 0.0 1.6 0.00 0.00 0.00 89 993.5
20190424052709 11 123 0.0 0.0 0.00 0.00 0.00 89 993.5
20190424052224 11 121 0.0 0.0 0.00 0.00 0.00 89 993.5
20190424051713 11 121 0.0 0.0 0.00 0.00 0.00 88 993.5
20190424051553 11 119 0.0 0.0 0.00 0.00 0.00 88 993.6
20190424051209 11 115 0.0 0.0 0.00 0.00 0.00 88 993.6
20190424050717 12 153 0.0 0.0 0.00 0.00 0.00 88 993.4
20190424050214 12 161 0.0 0.0 0.00 0.00 0.00 88 993.4
20190424050006 11 162 0.0 0.0 0.00 0.00 0.00 88 993.5
20190424045710 12 163 0.0 8.0 0.00 0.00 0.00 89 993.4
20190424045209 12 166 0.0 8.0 0.00 0.00 0.00 89 993.4
20190424044710 12 165 0.0 8.0 0.00 0.00 0.00 89 993.2
20190424044617 11 165 0.0 8.0 0.00 0.00 0.00 89 993.3
20190424044208 12 165 1.6 8.0 0.00 0.00 0.00 89 993.3
20190424043710 12 156 1.6 8.0 0.00 0.00 0.00 89 993.3
20190424043213 12 176 0.0 8.0 0.00 0.00 0.00 88 993.3
20190424042712 12 171 0.0 8.0 0.00 0.00 0.00 88 993.3
20190424042212 12 165 0.0 8.0 0.00 0.00 0.00 88 993.3
20190424041716 12 165 0.0 8.0 0.00 0.00 0.00 88 993.3
20190424041606 11 155 0.0 8.0 0.00 0.00 0.00 88 993.4
20190424041209 12 159 1.6 8.0 0.00 0.00 0.00 88 993.3
20190424040710 12 158 0.0 8.0 0.00 0.00 0.00 88 993.3
20190424040209 12 153 0.0 8.0 0.00 0.00 0.00 88 993.3
20190424040006 11 170 0.0 9.7 0.00 0.00 0.00 88 993.3
20190424035710 12 163 0.0 6.4 0.00 0.00 0.00 88 993.3
20190424035209 12 179 0.0 8.0 0.00 0.00 0.00 88 993.3
20190424034721 12 159 0.0 8.0 0.00 0.00 0.00 88 993.3
20190424034620 11 162 0.0 4.8 0.00 0.00 0.00 88 993.3
20190424034210 12 165 0.0 8.0 0.00 0.00 0.00 88 993.3
20190424033709 12 167 0.0 8.0 0.00 0.00 0.00 88 993.3
20190424033209 12 165 0.0 9.7 0.00 0.00 0.00 88 993.4
20190424033016 11 177 0.0 0.0 0.00 0.00 0.00 88 993.4
20190424032709 12 178 0.0 9.7 0.00 0.00 0.00 87 993.4
20190424032210 12 182 0.0 9.7 0.00 0.00 0.00 87 993.3
20190424031715 12 175 0.0 6.4 0.00 0.00 0.00 87 993.3
20190424031644 11 178 0.0 9.7 0.00 0.00 0.00 87 993.4
20190424031213 12 168 0.0 6.4 0.00 0.00 0.00 87 993.4
20190424030712 12 175 0.0 1.6 0.00 0.00 0.00 87 993.3
20190424030210 12 172 0.0 9.7 0.00 0.00 0.00 87 993.4
20190424030011 11 182 0.0 3.2 0.00 0.00 0.00 87 993.5
20190424025712 12 174 0.0 9.7 0.00 0.00 0.00 87 993.4
20190424025213 12 169 0.0 9.7 0.00 0.00 0.00 86 993.5
20190424024711 12 172 0.0 9.7 0.00 0.00 0.00 86 993.5
20190424024634 12 168 0.0 9.7 0.00 0.00 0.00 86 993.6
20190424024216 12 169 0.0 11.3 0.00 0.00 0.00 86 993.5
20190424023708 12 170 1.6 11.3 0.00 0.00 0.00 86 993.5
20190424023214 12 180 1.6 11.3 0.00 0.00 0.00 86 993.5
20190424023018 12 171 0.0 9.7 0.00 0.00 0.00 86 993.6
20190424022709 12 176 0.0 9.7 0.00 0.00 0.00 86 993.5
20190424022208 12 190 0.0 9.7 0.00 0.00 0.00 85 993.5
20190424021731 12 163 1.6 9.7 0.00 0.00 0.00 85 993.5
20190424021654 12 173 0.0 9.7 0.00 0.00 0.00 85 993.6
20190424021208 12 173 1.6 11.3 0.00 0.00 0.00 85 993.5
20190424020709 12 178 0.0 11.3 0.00 0.00 0.00 85 993.4
20190424020209 12 186 0.0 12.9 0.00 0.00 0.00 84 993.4
20190424020019 12 170 0.0 11.3 0.00 0.00 0.00 84 993.5
20190424015708 12 174 0.0 12.9 0.00 0.00 0.00 84 993.4
20190424015208 12 169 1.6 12.9 0.00 0.00 0.00 84 993.5